Find Starlink 32489

NORAD ID: 61893 Int'l Des: 2024-204 Owner: SPXS Country: US Constellation: starlink operational
LEOCIRCULAR

現在のビュー

3D地球を読み込み中...

About Starlink 32489

Starlink 32489 (NORAD 61893) is a starlink constellation satellite (v2 mini) launched Nov 9, 2024 by SPXS of US. It operates in LEO, CIRCULAR orbit with a mass of 730.00 kg.

Starlink 32489について

説明を読み込み中...

次回通過

Passes for default location (London). Set your location on the main map for personalized predictions.

高度履歴

Loading altitude history...

軌道要素

1 61893U 24204V 26165.89618523 .00000611 00000-0 29228-4 0 9996
2 61893 53.1598 33.9149 0001248 84.9495 275.1650 15.34393288 89990
Epoch: Jun 14, 2026 • Age: 16 hours

現在のステータス

高度 468.4 km
速度 7.64 km/s
衛星直下点 53.10°N, 20.75°E
打ち上げ日 Nov 9, 2024
運用期間 1.5 years
タイプ internet

技術仕様

分類 Payload
質量 730.00 kg
乾燥質量 700.00 kg
総質量 730.00 kg
長さ 0.30 m
直径 4.10 m
スパン 29.00 m
形状 Box + pan
製造者 SPXS
バスタイプ Starlink V2M
フェーズステータス In Orbit
所有者/国 SPXS/US

Most Searched